Regional Weather Roundup
Issued by NWS Northern Indiana

Home | Current Version | Previous Version | Text Only | Print | Product List | Glossary On
Versions: 1 2 3 4 5 6 7 8 9 10 11 12 13 14 15 16 17 18 19 20 21 22 23 24 25 26 27 28 29 30 31 32 33 34 35 36 37 38 39 40 41 42 43 44 45 46 47 48 49 50
674
ASUS43 KIWX 300910
RWRIWX

KIWX WEATHER ROUNDUP
NATIONAL WEATHER SERVICE NORTHERN INDIANA
500 AM EDT TUE MAY 30 2017

NOTE: "FAIR" INDICATES FEW OR NO CLOUDS BELOW 12,000 FEET WITH NO
SIGNIFICANT WEATHER AND/OR OBSTRUCTIONS TO VISIBILITY.

* THESE STATIONS ARE NOT UNDER NWS QUALITY CONTROL. THEY ALSO MAY NOT
  REPORT WEATHER SUCH AS PRECIPITATION OR FOG.

INZ001>027-301000-
NORTHERN INDIANA

CITY           SKY/WX    TMP DP  RH WIND       PRES   REMARKS
GARY*          CLEAR     59  45  60 SW5       29.92R
VALPARAISO     CLEAR     56  47  71 SW7       29.92S
MICHIGAN CITY* CLEAR     50  50 100 SW3       29.92R
LAPORTE*       CLEAR     55  46  71 W5        29.92R
KNOX*          CLEAR     54  36  50 SW6       29.92S
SOUTH BEND     CLEAR     51  46  83 SW3       29.91S
GOSHEN         CLEAR     53  46  77 S6        29.91S
MONTICELLO*    CLEAR     55  48  80 CALM      29.94R
LOGANSPORT*    CLEAR     55  50  82 SW7       29.94S
ROCHESTER*     CLEAR     59  46  63 W5        29.93S
WARSAW*        CLEAR     54  46  76 CALM      29.92S
ANGOLA*        CLEAR     54  52  94 CALM      29.91S
FORT WAYNE     PTCLDY    57  53  86 SW8       29.93R
HUNTINGTON*    CLEAR     55  54  95 CALM      29.93S
PERU/GRISSOM   CLEAR     55  50  82 SW7       29.93R
MARION*        CLEAR     55  52  88 S7        29.95S

$$
INZ028>050-301000-
CENTRAL INDIANA

CITY           SKY/WX    TMP DP  RH WIND       PRES   REMARKS
LAFAYETTE      CLEAR     51  51 100 CALM      29.95S FOG
KOKOMO*        CLEAR     56  51  84 SW7       29.95R
MUNCIE*        PTCLDY    61  55  81 SW6       29.95S
INDIANAPOLIS   PTCLDY    57  53  86 SW7       29.98R

$$
MIZ043>046-050>051-056>058-064>065-071>073-077>080-301000-
SOUTHWEST LOWER MICHIGAN

CITY           SKY/WX    TMP DP  RH WIND       PRES   REMARKS
BATTLE CREEK   MOCLDY    53  47  79 SW7       29.90R
BENTON HARBOR  CLEAR     49  46  90 CALM      29.89S
COLDWATER*     CLEAR     51  47  89 SW3       29.90F
HILLSDALE*     CLEAR     54  45  71 CALM      29.90S
HOLLAND        CLEAR     51  46  83 S6        29.88R
GRAND RAPIDS   CLEAR     51  47  86 SW5       29.87R
KALAMAZOO      PTCLDY    54  46  74 SW5       29.90S
STURGIS*       CLEAR     49  46  90 S3        29.90R
THREE RIVERS*  FAIR      50  47  88 CALM      29.90S

$$
OHZ001>008-015>018-024>025-301000-
NORTHWEST OHIO

CITY           SKY/WX    TMP DP  RH WIND       PRES   REMARKS
WAUSEON*       FAIR      57  50  77 SW5       29.91S
DEFIANCE       PTCLDY    53  51  93 S3        29.91S
FINDLAY        MOCLDY    60  53  77 S3        29.91S
TOLEDO EXPRESS CLOUDY    56  55  97 CALM      29.90S
TOLEDO METCALF MOCLDY    60  56  86 S3        29.91S
LIMA           PTCLDY    58  55  90 S8        29.93S

$$
AND FOR LAKE MICHIGAN COASTAL AND OPEN LAKE BUOY OBSERVATIONS

STATION/POSITION TEMP    WIND        PRES    VSBY  WAVE
                 AIR SEA DIR/SP/G                  HT/PER
                 (F)     (DEG/KT/KT) (MB)    (MI)  (FT/S)
CALUMET HARBOR    60     230/  4/  6 1012.5R
MICHIGAN CITY     57     190/  7/  8   N/A
BURNS HARBOR      61     230/  8/ 11 1013.2
4 MI NW BRIDGMAN  58 59  220/  6/  8 1012.6          1/ 4
MICHIGAN CITY     58 56  220/  6/  6   N/A           1

$$
&&




USA.gov is the U.S. government's official web portal to all federal, state and local government web resources and services.